Location: Gaast
(52.9002°N, 5.8891°E)
Time: 09:54:27
(UTC+00:00)

Cosmos 1862 - Pass Details

Date: 18 November 2025
Orbit: 473 x 485 km, 82.5° (Epoch: 11 December)

Event Time Altitude Azimuth Distance (km) Brightness Sun altitude
Rises 17:49:05 0° 346° (NNW) 2,544 6.8 -19.4°
Reaches altitude 10° 17:51:11 10° 344° (NNW) 1,662 5.9 -19.8°
Maximum altitude 17:54:47 66° 263° (W) 530 3.4 -20.3°
Drops below altitude 10° 17:58:23 10° 180° (S) 1,656 5.8 -20.8°
Sets 18:00:29 0° 178° (S) 2,533 6.7 -21.1°
